| time (UTC) | temp F | wind direction | speed MPH | gust MPH | rain 1hr in | rain 24hr in | rain mn in | humidity % | barometer mb |
| 20260504140943 | 74 | 218 | 0.0 | 1.0 | 0.00 | 0.00 | 0.00 | 66 | 1020.3 |
| 20260504120244 | 52 | 135 | 0.0 | 0.0 | 0.00 | 0.00 | 0.00 | 96 | 1019.9 |
| 20260504110544 | 52 | 135 | 0.0 | 0.0 | 0.00 | 0.00 | 0.00 | 96 | 1019.8 |
| 20260504081943 | 54 | 135 | 0.0 | 0.0 | 0.00 | 0.00 | 0.00 | 95 | 1019.7 |
| 20260504080943 | 54 | 135 | 0.0 | 0.0 | 0.00 | 0.00 | 0.00 | 95 | 1019.9 |
| 20260504060142 | 54 | 135 | 0.0 | 0.0 | 0.00 | 0.00 | 0.00 | 93 | 1020.8 |
| 20260504050243 | 55 | 135 | 0.0 | 0.0 | 0.00 | 0.00 | 0.00 | 92 | 1021.1 |
| 20260504045323 | 55 | 135 | 0.0 | 0.0 | 0.00 | 0.00 | 0.00 | 91 | 1021.2 |
| 20260504044324 | 55 | 135 | 0.0 | 0.0 | 0.00 | 0.00 | 0.00 | 91 | 1021.3 |
| 20260504043321 | 56 | 135 | 0.0 | 0.0 | 0.00 | 0.00 | 0.00 | 90 | 1021.2 |
| 20260504042322 | 56 | 135 | 0.0 | 0.0 | 0.00 | 0.00 | 0.00 | 90 | 1021.3 |
| 20260504041421 | 56 | 135 | 0.0 | 0.0 | 0.00 | 0.00 | 0.00 | 90 | 1021.3 |
| 20260504040422 | 56 | 135 | 0.0 | 0.0 | 0.00 | 0.00 | 0.00 | 90 | 1021.4 |
| 20260504035421 | 56 | 135 | 0.0 | 0.0 | 0.00 | 0.00 | 0.00 | 89 | 1021.4 |
| 20260504034521 | 56 | 135 | 0.0 | 0.0 | 0.00 | 0.00 | 0.00 | 89 | 1021.3 |
| 20260504033523 | 56 | 135 | 0.0 | 0.0 | 0.00 | 0.00 | 0.00 | 89 | 1021.2 |
| 20260504032522 | 57 | 135 | 0.0 | 0.0 | 0.00 | 0.00 | 0.00 | 87 | 1021.4 |
| 20260504031522 | 57 | 135 | 0.0 | 0.0 | 0.00 | 0.00 | 0.00 | 87 | 1021.4 |
| 20260504030520 | 57 | 135 | 0.0 | 0.0 | 0.00 | 0.00 | 0.00 | 86 | 1021.3 |
| 20260504025522 | 57 | 135 | 0.0 | 0.0 | 0.00 | 0.00 | 0.00 | 87 | 1021.3 |
| 20260504024523 | 58 | 135 | 0.0 | 0.0 | 0.00 | 0.00 | 0.00 | 85 | 1021.1 |
| 20260504023620 | 58 | 135 | 0.0 | 0.0 | 0.00 | 0.00 | 0.00 | 85 | 1021.1 |
| 20260504022621 | 58 | 135 | 0.0 | 0.0 | 0.00 | 0.00 | 0.00 | 83 | 1021.0 |
| 20260504021721 | 59 | 135 | 0.0 | 0.0 | 0.00 | 0.00 | 0.00 | 84 | 1021.0 |
| 20260504020820 | 59 | 135 | 0.0 | 0.0 | 0.00 | 0.00 | 0.00 | 82 | 1020.9 |
| 20260504015821 | 60 | 135 | 0.0 | 0.0 | 0.00 | 0.00 | 0.00 | 82 | 1020.6 |
| 20260504014823 | 60 | 135 | 0.0 | 0.0 | 0.00 | 0.00 | 0.00 | 81 | 1020.6 |
| 20260504013822 | 61 | 135 | 0.0 | 0.0 | 0.00 | 0.00 | 0.00 | 79 | 1020.6 |
| 20260504012822 | 62 | 135 | 0.0 | 0.0 | 0.00 | 0.00 | 0.00 | 80 | 1020.5 |
| 20260504005922 | 64 | 135 | 0.0 | 0.0 | 0.00 | 0.00 | 0.00 | 74 | 1020.3 |
| 20260504004023 | 66 | 173 | 0.0 | 0.0 | 0.00 | 0.00 | 0.00 | 69 | 1020.2 |
| 20260504003022 | 68 | 180 | 0.0 | 0.0 | 0.00 | 0.00 | 0.00 | 69 | 1020.0 |
| 20260504002021 | 69 | 180 | 0.0 | 0.0 | 0.00 | 0.00 | 0.00 | 63 | 1020.1 |
| 20260504001021 | 71 | 180 | 0.0 | 0.0 | 0.00 | 0.00 | 0.00 | 58 | 1019.9 |
| 20260504000022 | 71 | 204 | 0.0 | 1.0 | 0.00 | 0.00 | 0.00 | 52 | 1019.9 |
| 20260503235121 | 72 | 187 | 1.0 | 2.0 | 0.00 | 0.00 | 0.00 | 51 | 1019.9 |
| 20260503234123 | 72 | 210 | 1.0 | 3.0 | 0.00 | 0.00 | 0.00 | 51 | 1020.1 |
| 20260503233122 | 72 | 216 | 2.0 | 3.0 | 0.00 | 0.00 | 0.00 | 49 | 1020.2 |
| 20260503232121 | 73 | 180 | 3.0 | 6.0 | 0.00 | 0.00 | 0.00 | 47 | 1020.2 |
| 20260503231122 | 73 | 207 | 3.0 | 5.0 | 0.00 | 0.00 | 0.00 | 47 | 1020.2 |
| 20260503230121 | 74 | 203 | 3.0 | 4.0 | 0.00 | 0.00 | 0.00 | 45 | 1020.1 |
| 20260503225121 | 75 | 225 | 1.0 | 3.0 | 0.00 | 0.00 | 0.00 | 44 | 1020.1 |
| 20260503224121 | 76 | 178 | 0.0 | 1.0 | 0.00 | 0.00 | 0.00 | 42 | 1020.3 |
| 20260503223120 | 76 | 240 | 2.0 | 4.0 | 0.00 | 0.00 | 0.00 | 42 | 1020.3 |
| 20260503222220 | 77 | 172 | 3.0 | 6.0 | 0.00 | 0.00 | 0.00 | 42 | 1020.3 |
| 20260503221221 | 76 | 160 | 0.0 | 1.0 | 0.00 | 0.00 | 0.00 | 44 | 1020.3 |
| 20260503220221 | 75 | 216 | 3.0 | 5.0 | 0.00 | 0.00 | 0.00 | 43 | 1020.4 |
| 20260503215222 | 76 | 216 | 2.0 | 5.0 | 0.00 | 0.00 | 0.00 | 43 | 1020.7 |
| 20260503214321 | 76 | 217 | 2.0 | 6.0 | 0.00 | 0.00 | 0.00 | 42 | 1020.8 |
| 20260503212322 | 76 | 200 | 2.0 | 4.0 | 0.00 | 0.00 | 0.00 | 42 | 1021.2 |
| 20260503205422 | 76 | 221 | 4.0 | 7.0 | 0.00 | 0.01 | 0.00 | 43 | 1021.2 |
| 20260503203522 | 76 | 212 | 3.0 | 5.0 | 0.00 | 0.01 | 0.00 | 43 | 1021.6 |
| 20260503202620 | 78 | 217 | 4.0 | 7.0 | 0.00 | 0.01 | 0.00 | 41 | 1021.7 |
| 20260503200721 | 80 | 153 | 4.0 | 6.0 | 0.00 | 0.01 | 0.00 | 38 | 1021.9 |
| 20260503195721 | 79 | 63 | 1.0 | 3.0 | 0.00 | 0.01 | 0.00 | 36 | 1022.1 |
| 20260503194820 | 79 | 90 | 1.0 | 3.0 | 0.00 | 0.01 | 0.00 | 37 | 1022.2 |
| 20260503193822 | 79 | 113 | 1.0 | 3.0 | 0.00 | 0.01 | 0.00 | 35 | 1022.4 |
| 20260503192823 | 78 | 216 | 3.0 | 4.0 | 0.00 | 0.01 | 0.00 | 37 | 1022.6 |
| 20260503191820 | 78 | 223 | 3.0 | 6.0 | 0.00 | 0.01 | 0.00 | 36 | 1022.5 |
| 20260503184821 | 77 | 154 | 2.0 | 4.0 | 0.00 | 0.01 | 0.00 | 37 | 1023.0 |
| 20260503183820 | 77 | 44 | 0.0 | 1.0 | 0.00 | 0.01 | 0.00 | 38 | 1023.3 |
| 20260503182822 | 77 | 214 | 5.0 | 8.0 | 0.00 | 0.01 | 0.00 | 37 | 1023.3 |
| 20260503175920 | 76 | 47 | 1.0 | 2.0 | 0.00 | 0.01 | 0.00 | 38 | 1023.7 |
| 20260503174920 | 75 | 188 | 1.0 | 2.0 | 0.00 | 0.01 | 0.00 | 38 | 1023.6 |
| 20260503173920 | 74 | 67 | 0.0 | 0.0 | 0.00 | 0.01 | 0.00 | 38 | 1023.8 |
| 20260503171920 | 78 | 56 | 2.0 | 4.0 | 0.00 | 0.01 | 0.00 | 38 | 1024.2 |